TimeCST,TemperatureF,Dew PointF,Humidity,Sea Level PressureIn,VisibilityMPH,Wind Direction,Wind SpeedMPH,Gust SpeedMPH,PrecipitationIn,Events,Conditions,WindDirDegrees,DateUTC
12:52 AM,26.1,21.9,84,30.27,10.0,SSE,11.5,-,N/A,,Overcast,160,2013-03-02 06:52:00
1:52 AM,26.1,21.9,84,30.25,10.0,SSE,13.8,-,N/A,,Overcast,160,2013-03-02 07:52:00
2:52 AM,26.1,21.9,84,30.24,10.0,SSE,11.5,-,N/A,,Scattered Clouds,160,2013-03-02 08:52:00
3:00 AM,26.6,23.0,86,30.16,10.0,SSE,10.4,-,N/A,,Scattered Clouds,150,2013-03-02 09:00:00
3:48 AM,24.8,21.2,86,30.12,10.0,SSE,10.4,-,N/A,,Overcast,150,2013-03-02 09:48:00
3:52 AM,25.0,21.9,88,30.20,10.0,SSE,11.5,-,N/A,,Overcast,150,2013-03-02 09:52:00
4:52 AM,26.1,23.0,88,30.19,10.0,SSE,9.2,-,N/A,,Overcast,160,2013-03-02 10:52:00
5:52 AM,26.1,23.0,88,30.17,10.0,SSE,8.1,-,N/A,,Overcast,160,2013-03-02 11:52:00
6:52 AM,25.0,21.9,88,30.15,10.0,South,8.1,-,N/A,,Overcast,180,2013-03-02 12:52:00
7:52 AM,24.1,21.0,88,30.15,10.0,South,8.1,-,N/A,,Clear,170,2013-03-02 13:52:00
8:52 AM,26.1,21.9,84,30.14,10.0,South,4.6,-,N/A,,Clear,180,2013-03-02 14:52:00
9:52 AM,28.9,23.0,78,30.13,10.0,Calm,Calm,-,N/A,,Clear,0,2013-03-02 15:52:00
10:52 AM,34.0,25.0,70,30.12,10.0,Calm,Calm,-,N/A,,Clear,0,2013-03-02 16:52:00
11:52 AM,37.0,27.0,67,30.12,10.0,WSW,4.6,-,N/A,,Clear,240,2013-03-02 17:52:00
12:52 PM,41.0,28.9,62,30.10,10.0,WSW,3.5,-,N/A,,Clear,240,2013-03-02 18:52:00
1:52 PM,43.0,30.0,60,30.08,10.0,NW,5.8,-,N/A,,Clear,320,2013-03-02 19:52:00
2:52 PM,45.0,30.9,58,30.06,10.0,Calm,Calm,-,N/A,,Clear,0,2013-03-02 20:52:00
3:52 PM,48.0,32.0,54,30.05,10.0,NW,4.6,-,N/A,,Clear,310,2013-03-02 21:52:00
4:52 PM,46.0,30.9,56,30.05,10.0,NNW,5.8,-,N/A,,Clear,330,2013-03-02 22:52:00
5:52 PM,37.9,30.9,76,30.06,10.0,ENE,5.8,-,N/A,,Scattered Clouds,70,2013-03-02 23:52:00
6:52 PM,35.1,30.0,82,30.07,10.0,NE,8.1,-,N/A,,Clear,50,2013-03-03 00:52:00
7:52 PM,33.1,28.9,85,30.08,10.0,NE,3.5,-,N/A,,Clear,50,2013-03-03 01:52:00
8:52 PM,32.0,28.9,88,30.06,10.0,Calm,Calm,-,N/A,,Clear,0,2013-03-03 02:52:00
9:52 PM,30.0,28.0,92,30.05,8.0,ENE,5.8,-,N/A,,Clear,60,2013-03-03 03:52:00
10:52 PM,30.2,28.4,93,29.96,7.0,NE,4.6,-,N/A,,Clear,50,2013-03-03 04:52:00